KUIPER-00175

导读

KUIPER-00175是美国亚马逊“柯伊伯计划(Project Kuiper)”低轨卫星互联网星座中,于2025年12月15日发射的量产卫星。该项目计划部署3236颗低轨卫星,旨在为全球提供高速低延迟宽带服务,KUIPER-00175将运行在近地轨道,依托Ka频段通信技术与AWS云生态整合,助力项目2026年完成过半部署目标,推动全球卫星互联网的组网进程。

基本信息
目录编号:
67135
目录名称:
KUIPER-00175
国际标识:
2025-301C
轨道中心:
EARTH
卫星名称:
KUIPER-00175
卫星全名:
KUIPER-00175
卫星状态:
在轨 (已飞行264 天)
发射日期:
2025-12-15 UTC
国别 :
美国 (US)
星等 :
--
轨道信息
数据来源 国际轨道数据 AOE轨道数据
星历时间 2026-09-05T18:33:01+0800
7小时前
查看轨道信息
2026-09-03T10:00:00+0800
2天前
查看轨道信息
半长轴 7007.697km 7007.663km
偏心率 0.0000495 0.0000588
轨道倾角 51.903° 51.900°
近地点辐角 104.969° 86.803°
升交点赤经 335.725° 346.145°
平近点角 255.132° 312.202°
近地点 629.213km 629.113km
远地点 629.907km 629.939km
周期 97.302分钟 97.301分钟
每日圈数 14.799254 14.799363
详细信息
使用方式:
暂无
2D轨道图
3D轨道图
轨道高度分析图
轨道倾角分析图
轨道综合分析图
查看轨道综合分析图
交会数据列表
事件ID 空间交会对象 最接近时刻(TCA) 交会距离 交会风险概率(CRP) 交会风险指数(CRI) 操作
CDM_260907-073906-008106-713521
2026-09-07T
07:39:48+0000
0.946 km
远距离
2.204102E-5 中风险 0.62
CDM_260907-082806-008106-713521
2026-09-07T
08:28:26+0000
2.575 km
极远距离
1.197816E-6 低风险 0.37